Location: Chochol
(49.7771°N, 14.9780°E)
Time: 12:10:38
(UTC+00:00)

Abrixas rocket - Pass Details

Date: 09 April 2020
Orbit: 345 x 352 km, 48.4° (Epoch: 25 May)

Event Time Altitude Azimuth Distance (km) Brightness Sun altitude
Rises 18:24:39 0° 276° (W) 2,159 7.7 -7.0°
Reaches altitude 10° 18:26:42 10° 270° (W) 1,317 6.1 -7.3°
Maximum altitude 18:29:33 47° 195° (SSW) 479 2.5 -7.7°
Enters shadow 18:32:13 11° 121° (ESE) 1,242 4.0 -8.1°
